Date,TemperatureHighF,TemperatureAvgF,TemperatureLowF,DewpointHighF,DewpointAvgF,DewpointLowF,HumidityHigh,HumidityAvg,HumidityLow,PressureMaxIn,PressureMinIn,WindSpeedMaxMPH,WindSpeedAvgMPH,GustSpeedMaxMPH,PrecipitationSumIn
2013-1-1,23.2,7.6,-4.7,-1.5,-9.6,-15.0,65,46,28,21.91,21.76,13,4,13,0.00
2013-1-2,26.2,18.4,12.9,7.9,4.0,-1.5,65,54,32,22.00,21.90,15,5,15,0.00
2013-1-3,32.7,18.9,9.3,14.2,8.5,-2.9,70,63,56,29.94,21.81,16,6,17,0.00
2013-1-4,37.6,20.8,8.4,13.8,6.9,-3.1,70,56,38,21.98,21.84,17,6,17,0.00
2013-1-5,36.1,23.3,6.4,26.4,13.6,-1.5,77,67,44,22.15,21.83,19,4,19,0.00
2013-1-6,37.4,24.5,10.2,22.5,13.5,1.6,73,63,45,22.14,21.76,19,6,19,0.27
2013-1-7,40.8,25.9,9.1,22.6,13.4,0.7,73,60,41,22.04,21.78,26,6,26,0.00
2013-1-8,39.4,28.6,10.9,28.9,18.9,3.7,76,67,52,22.14,21.93,20,5,20,0.00
2013-1-9,44.2,34.5,20.1,29.5,21.0,13.1,74,59,37,22.14,21.58,25,9,25,0.00
2013-1-10,38.1,30.7,16.0,32.4,22.3,8.8,91,72,50,22.15,21.55,55,4,55,0.69
2013-1-11,43.0,37.9,34.0,42.4,36.5,31.6,99,95,91,22.45,22.14,14,3,14,0.31
2013-1-12,48.4,32.8,19.9,45.1,22.9,6.8,99,68,50,22.45,22.00,31,10,31,0.00
2013-1-14,25.9,15.3,7.7,4.3,1.1,-2.0,65,54,36,21.66,21.63,12,2,12,0.00
2013-1-15,80.8,23.0,3.4,38.5,5.0,-6.0,69,47,22,30.16,21.63,19,6,19,0.00
2013-1-16,32.0,28.4,22.8,27.7,16.9,3.0,86,63,41,22.24,21.90,28,8,28,0.99
2013-1-17,28.6,17.9,10.2,3.2,-1.1,-8.9,57,44,22,21.90,21.63,13,5,13,0.99
2013-1-18,59.2,38.9,15.6,48.9,26.0,8.2,98,60,48,29.94,21.85,25,8,25,0.01
2013-1-19,50.0,34.3,9.0,32.2,21.2,-13.5,82,60,30,22.39,22.02,41,11,41,0.01
2013-1-20,56.7,9.8,4.1,45.5,-13.7,-19.7,66,34,22,29.78,21.71,30,8,34,0.01
2013-1-21,6.6,-1.1,-7.8,-9.4,-23.2,-31.0,53,34,21,21.89,21.73,25,9,25,0.00
2013-1-22,10.4,-1.8,-9.8,-16.4,-23.3,-28.5,47,35,21,21.75,21.68,16,5,16,0.00
2013-1-23,17.4,8.4,-1.1,6.1,-6.1,-18.9,63,51,38,21.95,21.56,23,7,23,0.00
2013-1-24,45.3,5.1,-4.0,-0.9,-13.6,-19.7,57,41,29,30.19,21.38,13,4,13,0.00
2013-1-25,56.8,17.1,11.3,9.9,5.5,-0.9,71,60,50,29.78,21.71,19,6,19,0.00
2013-1-26,44.2,17.1,3.4,7.2,0.2,-7.1,62,48,25,29.99,21.63,14,5,14,0.00
2013-1-27,30.9,26.9,22.6,28.8,17.9,7.2,92,70,50,22.17,21.72,17,6,17,0.00
2013-1-28,44.6,33.0,30.2,30.9,29.2,26.8,93,86,72,30.20,22.06,11,2,11,0.13
2013-1-29,45.7,37.5,32.4,45.0,36.1,29.1,99,95,88,30.10,22.24,14,5,14,0.43
2013-1-30,41.7,25.1,13.3,31.5,21.0,3.0,94,84,64,30.04,22.39,14,2,14,0.04
2013-1-31,17.1,8.1,-0.9,3.6,-5.5,-15.5,66,53,39,22.39,21.88,0,0,0,0.00
2013-2-1,72.3,0.4,-8.5,-7.2,-16.9,-25.1,63,44,27,29.88,21.73,1,0,1,0.00
2013-2-2,55.8,7.4,1.4,-4.9,-8.6,-14.6,65,50,25,29.91,21.89,0,0,0,0.81
2013-2-3,44.2,12.4,0.9,2.7,-2.3,-10.5,65,52,33,29.96,21.99,21,4,21,0.81
2013-2-4,51.3,13.7,3.4,4.1,-3.3,-13.7,72,49,22,30.00,22.01,13,4,13,0.00
2013-2-5,12.2,3.5,0.0,2.5,-7.9,-12.8,66,58,54,22.19,22.10,10,1,10,0.00
2013-2-6,26.4,24.9,23.4,21.7,18.5,15.4,82,76,70,21.97,21.88,11,3,11,0.00
2013-2-7,37.0,27.4,22.5,29.7,24.0,17.8,92,87,81,30.15,21.88,22,7,22,0.00
2013-2-8,37.8,21.4,4.6,17.8,8.0,-4.5,81,57,32,21.87,21.63,20,5,20,0.04
2013-2-9,32.4,18.2,-1.1,20.3,10.0,-11.9,80,70,59,29.97,21.64,18,6,18,0.00
2013-2-10,41.4,31.9,20.7,40.6,28.4,16.5,98,87,75,29.90,21.95,24,5,24,0.18
2013-2-11,45.9,30.6,25.3,32.5,23.1,13.8,90,74,59,29.91,22.03,31,13,31,0.04
2013-2-12,50.5,24.7,19.2,16.9,13.0,8.2,78,61,44,30.07,21.96,20,6,20,0.00
2013-2-13,45.0,29.6,15.6,25.0,19.3,10.2,83,67,43,22.36,22.18,9,3,9,0.15
2013-2-14,33.8,31.2,20.7,31.5,23.9,6.4,92,75,54,22.45,21.96,27,8,27,0.01
2013-2-15,32.7,17.6,7.2,6.4,-2.2,-8.7,59,43,22,29.94,21.80,18,6,22,0.00
2013-2-16,47.3,10.8,-3.8,-1.3,-10.2,-18.6,58,40,20,29.93,21.81,18,4,18,0.00
2013-2-17,25.5,11.0,-10.5,10.2,-7.5,-24.5,55,44,27,22.12,21.83,17,5,17,0.00
2013-2-18,56.5,33.2,23.9,30.6,21.7,10.2,82,63,50,29.31,22.12,27,9,27,0.00
2013-2-19,23.7,12.5,5.5,18.1,-3.5,-14.8,79,50,29,22.46,21.83,30,14,30,0.00
2013-2-20,37.4,15.1,2.3,37.2,-5.0,-13.9,99,41,23,29.73,21.63,17,7,17,0.00
2013-2-21,36.1,16.2,4.1,18.7,6.0,-6.9,83,64,42,29.95,21.57,17,5,17,0.00
2013-2-22,33.6,26.2,21.2,28.8,20.8,15.8,85,80,71,22.22,21.93,15,4,15,0.04
2013-2-23,36.3,26.8,23.5,19.2,16.2,14.0,75,64,44,22.20,22.08,17,6,17,0.02
2013-2-24,62.8,29.4,15.6,24.1,16.0,9.3,82,59,31,29.86,21.88,10,3,10,0.01
2013-2-25,38.3,27.9,18.5,23.0,17.3,10.0,77,65,48,21.97,21.86,11,2,11,0.00
2013-2-26,38.5,29.4,22.6,24.8,20.9,14.9,86,71,50,22.28,21.88,34,12,34,0.00
2013-2-27,47.1,31.3,28.0,28.9,25.3,21.2,89,78,68,30.29,22.17,27,12,27,0.00
2013-2-28,43.0,31.2,24.8,26.2,19.4,8.8,81,62,49,30.30,21.85,24,11,24,0.00
2013-3-1,35.6,24.4,12.9,16.9,10.2,2.7,75,55,33,30.32,21.75,16,6,16,0.00
2013-3-2,34.9,18.7,5.9,8.8,-0.3,-6.9,66,46,22,30.08,21.74,17,4,17,0.00
2013-3-3,42.8,21.1,2.7,8.8,-0.8,-10.8,63,41,18,21.94,21.84,8,2,8,0.00
2013-3-4,34.2,21.7,7.3,17.6,7.5,-6.0,70,54,39,21.97,21.88,17,4,17,0.00
2013-3-5,37.4,26.2,25.0,24.4,19.3,13.6,84,75,59,29.98,21.88,25,8,25,0.00
2013-3-6,35.2,26.2,15.6,21.4,16.3,8.6,75,66,53,21.87,21.69,16,6,16,0.01
2013-3-7,46.6,24.8,6.3,19.8,10.2,-1.5,74,56,28,21.70,21.60,11,2,11,0.01
2013-3-8,50.0,26.6,8.2,23.7,14.3,-1.5,71,60,47,30.18,21.57,18,4,18,0.00
2013-3-9,40.1,34.4,27.5,33.6,27.2,18.3,90,75,64,30.14,21.76,23,8,23,0.18
2013-3-10,39.6,35.9,32.2,37.4,33.1,29.3,96,89,84,22.34,22.17,25,6,25,0.50
2013-3-11,37.6,32.1,27.3,30.7,27.3,18.9,92,83,70,22.44,22.24,21,4,21,0.19
2013-3-12,32.4,27.3,22.6,21.4,16.3,8.4,80,63,52,22.25,21.97,24,8,24,0.19
2013-3-13,39.7,25.9,16.5,10.8,4.4,-2.0,67,43,19,21.97,21.71,20,7,20,0.00
2013-3-14,37.0,25.9,13.5,23.5,13.7,3.2,81,60,44,21.99,21.71,14,4,14,0.00
2013-3-15,37.6,30.9,26.1,32.9,25.7,20.7,87,81,71,22.15,21.97,15,4,15,0.05
2013-3-16,37.2,24.8,18.1,22.1,12.1,5.9,85,60,35,22.16,21.88,18,7,18,0.01
2013-3-17,35.6,22.0,10.2,10.8,3.6,-5.1,60,46,26,21.99,21.72,15,6,15,0.00
2013-3-18,33.6,23.2,14.2,29.3,15.6,4.6,84,73,60,22.45,21.99,24,5,24,0.01
2013-3-19,32.4,20.6,12.7,5.4,0.6,-6.2,63,43,23,22.32,21.97,30,14,30,0.02
2013-3-20,24.8,14.4,6.4,-3.5,-9.0,-15.0,43,34,25,22.00,21.94,25,10,25,0.00
2013-3-21,36.5,19.3,5.2,4.8,-2.2,-9.4,60,40,22,22.02,21.94,16,5,16,0.00
2013-3-22,46.4,25.9,9.3,10.8,4.1,-3.6,63,42,21,22.01,21.93,13,3,13,0.00
2013-3-23,49.5,28.8,15.1,18.7,11.1,5.2,69,50,23,21.95,21.88,14,2,14,0.00
2013-3-24,34.0,30.2,27.5,26.8,18.9,-0.8,83,63,51,22.16,21.91,24,9,24,0.00
2013-3-25,36.7,31.0,21.7,22.3,16.1,10.4,68,54,46,22.14,21.88,21,9,21,2.95
2013-3-26,45.9,35.1,28.6,23.9,17.8,14.7,61,50,34,21.89,21.76,16,6,16,0.00
2013-3-27,51.8,37.3,26.4,22.6,15.4,7.5,62,43,21,21.76,21.71,15,4,15,0.00
2013-3-28,57.0,37.6,21.6,19.4,13.6,10.4,66,41,18,21.75,21.66,12,2,12,0.00
2013-3-29,59.7,38.8,20.7,25.9,16.3,12.0,76,45,19,21.81,21.68,10,2,10,0.00
2013-3-30,52.9,41.5,30.7,41.5,29.4,18.1,97,64,42,22.18,21.80,22,6,22,0.04
2013-3-31,45.7,38.1,31.5,38.5,28.1,10.4,96,70,37,22.28,22.07,29,8,29,0.01
2013-4-1,38.1,29.8,22.5,11.7,5.7,-0.2,51,37,21,22.07,21.83,27,9,27,0.00
2013-4-2,43.3,31.2,21.9,10.4,6.3,-0.8,53,36,20,21.84,21.69,21,7,21,0.00
2013-4-3,50.4,35.3,18.3,14.7,9.3,4.3,68,37,19,21.78,21.55,16,4,16,0.00
2013-4-4,58.5,44.1,33.3,33.6,21.4,13.1,55,41,28,22.04,21.78,21,7,21,0.00
2013-4-5,52.7,39.0,28.8,28.6,18.8,1.8,89,47,22,21.93,21.75,18,5,18,0.00
2013-4-6,58.1,43.2,30.0,48.6,33.9,24.3,91,72,43,22.48,21.86,26,8,26,0.04
2013-4-7,57.7,42.3,36.0,38.5,31.6,28.8,84,67,39,22.41,22.03,100,6,100,0.04
2013-4-8,50.5,39.4,35.4,41.2,34.2,28.2,94,82,69,22.29,21.97,12,5,12,0.15
2013-4-9,39.4,37.1,32.5,37.2,33.7,23.5,95,88,60,22.07,21.89,19,7,19,0.58
2013-4-10,34.5,32.9,31.1,30.9,29.2,24.8,91,86,69,22.09,21.84,17,2,17,1.03
2013-4-11,36.5,34.0,32.4,33.1,29.8,24.8,90,85,69,22.37,22.05,22,8,22,0.27
2013-4-12,39.0,33.8,31.8,34.7,30.1,27.5,92,86,73,22.44,22.22,14,3,14,0.11
2013-4-13,38.7,33.9,29.8,28.6,24.1,20.1,86,68,52,22.24,22.00,21,7,21,0.01
2013-4-14,40.5,33.9,26.8,36.0,28.7,19.9,87,81,71,22.40,21.99,18,4,18,0.20
2013-4-15,59.2,46.2,38.1,46.4,33.3,21.6,97,65,29,22.39,22.03,30,8,30,0.22
2013-4-16,55.4,41.3,32.0,28.9,25.7,22.6,73,56,29,22.04,21.69,19,6,19,0.00
2013-4-17,42.3,37.9,32.9,38.8,31.8,24.6,94,79,62,22.11,21.66,18,5,18,0.27
2013-4-18,46.6,40.6,38.1,45.9,39.0,34.3,98,94,80,22.69,22.11,27,7,27,0.56
2013-4-19,39.7,34.1,28.8,34.7,24.1,14.2,88,68,44,22.69,22.08,30,13,30,0.02
2013-4-20,51.1,35.2,24.1,16.3,10.5,0.3,66,39,19,22.08,21.63,22,6,22,0.00
2013-4-21,51.8,39.2,29.5,36.5,26.5,14.2,91,62,39,21.79,21.53,27,9,27,0.01
2013-4-22,66.6,53.4,42.3,41.5,36.4,33.1,84,55,32,22.02,21.78,23,7,23,0.08
2013-4-23,56.1,42.3,34.7,45.5,32.0,23.0,90,67,54,22.12,21.97,21,9,21,0.01
2013-4-24,57.4,42.9,28.9,33.6,21.1,12.2,77,46,20,22.04,21.96,31,7,31,0.00
2013-4-25,55.6,43.2,32.7,35.4,28.4,20.5,87,59,29,22.04,21.74,20,7,20,0.00
2013-4-26,73.2,55.3,32.2,46.6,34.9,23.9,75,48,29,21.91,21.75,30,10,30,0.00
2013-4-27,70.0,59.3,46.9,49.6,46.5,42.6,92,65,44,21.99,21.80,23,6,23,0.00
2013-4-28,80.4,59.6,38.7,49.5,41.7,37.4,99,59,24,22.22,21.98,14,3,14,0.00
2013-4-29,72.9,60.7,52.9,59.5,52.3,45.3,99,75,48,22.29,22.14,24,5,24,0.12
2013-4-30,88.2,72.6,59.5,62.1,56.1,48.0,97,61,26,22.37,22.08,36,10,36,0.20
2013-5-1,86.0,63.0,46.8,52.7,46.3,37.9,83,57,30,22.08,21.71,27,9,27,0.00
2013-5-2,46.9,41.6,35.1,37.8,35.0,31.6,99,78,66,21.74,21.64,29,13,29,0.04
2013-5-3,45.0,38.6,33.8,44.2,37.9,31.6,99,97,87,21.95,21.73,16,8,16,0.54
2013-5-4,78.3,57.2,43.0,55.0,47.9,42.4,99,75,37,21.99,21.91,15,4,15,0.11
2013-5-5,81.0,61.8,46.9,49.3,46.0,38.3,98,62,23,21.98,21.90,14,4,14,0.00
2013-5-6,84.0,62.2,44.1,48.6,43.1,34.3,99,58,19,22.00,21.88,17,3,17,0.00
2013-5-7,86.4,64.9,43.9,47.8,39.7,25.7,97,51,13,27.42,21.91,19,3,19,0.00
2013-5-8,90.0,67.5,45.0,52.3,43.6,33.3,93,50,16,22.04,21.96,10,2,10,0.00
2013-5-9,67.1,59.6,45.7,57.9,53.0,44.8,99,79,64,22.08,22.02,23,4,23,0.30
2013-5-10,62.1,47.8,39.7,49.8,43.9,39.6,99,87,60,22.07,21.96,25,8,25,0.73
2013-5-11,56.3,48.2,39.9,50.4,35.1,14.7,99,65,21,22.19,21.94,34,11,34,0.01
2013-5-12,59.4,45.4,34.7,30.7,22.0,13.5,72,43,20,21.94,21.88,26,9,26,0.00
2013-5-13,68.7,50.3,28.9,39.6,26.2,17.2,86,46,16,22.12,21.82,15,4,15,0.00
2013-5-14,91.8,72.1,45.9,59.7,47.7,37.8,83,46,19,22.48,22.12,21,6,21,0.00
2013-5-15,82.4,71.0,57.2,59.5,42.2,32.5,65,38,18,22.44,22.13,22,7,22,0.00
2013-5-16,90.9,68.8,50.7,53.4,47.1,33.4,88,50,23,22.14,21.97,20,4,20,0.00
2013-5-17,59.5,54.4,48.6,55.8,47.5,36.5,99,80,43,22.00,21.88,14,4,14,0.45
2013-5-18,81.1,64.9,50.0,66.0,58.2,49.6,99,81,53,22.06,21.91,15,4,15,0.00
2013-5-19,86.7,71.7,56.3,66.7,61.7,55.2,99,74,41,22.32,22.05,30,6,30,0.00
2013-5-20,84.4,72.7,61.5,64.4,61.3,55.9,99,71,44,22.37,22.17,29,7,29,0.24
2013-5-21,77.9,69.6,60.1,64.9,59.8,56.3,92,72,50,22.40,22.27,22,6,23,0.01
2013-5-22,66.4,59.2,52.3,62.4,57.7,51.8,99,95,83,22.33,22.15,19,4,19,1.30
2013-5-23,66.6,54.9,46.8,52.0,40.8,23.4,99,66,23,22.15,21.67,23,11,23,0.13
2013-5-24,72.3,53.4,35.4,45.1,36.5,28.9,97,57,22,21.70,21.55,14,3,14,0.00
2013-5-25,69.1,56.3,47.5,45.1,38.8,30.6,80,54,27,21.70,21.60,18,5,18,0.00
2013-5-26,66.2,55.7,40.5,49.8,42.4,36.3,96,64,35,21.83,21.68,18,4,18,0.00
2013-5-27,57.0,53.8,50.9,55.6,48.4,40.3,99,83,58,22.08,21.81,20,5,20,0.17
2013-5-28,64.9,56.7,50.7,61.7,55.6,50.4,99,96,86,22.26,22.07,10,3,10,0.09
2013-5-29,86.4,70.3,59.4,68.5,62.8,59.0,99,81,44,22.20,22.08,24,6,24,0.27
2013-5-30,84.6,72.6,62.2,70.9,66.5,61.7,99,83,57,22.29,22.10,40,9,40,0.43
2013-5-31,80.8,70.8,64.0,66.6,62.6,59.2,93,77,52,22.32,22.22,25,9,25,0.11
2013-6-1,81.9,69.0,55.0,65.3,57.6,51.6,99,70,39,22.37,22.27,26,7,26,0.01
2013-6-2,69.1,55.8,46.8,59.9,43.2,38.7,96,65,35,22.27,21.96,25,9,25,0.01
2013-6-3,80.1,60.7,40.6,49.8,43.2,35.6,99,60,22,22.00,21.89,15,3,15,0.00
2013-6-4,58.8,54.8,50.5,56.7,52.8,48.6,99,93,82,21.91,21.80,12,3,12,0.13
2013-6-5,63.7,54.7,50.5,58.6,53.0,50.2,99,94,79,22.02,21.83,10,2,10,0.56
2013-6-6,59.9,54.6,51.3,57.2,52.8,50.9,99,94,86,22.04,21.99,10,3,10,0.28
2013-6-7,77.7,60.9,48.4,55.4,51.3,46.4,98,73,41,27.42,21.96,10,3,10,0.00
2013-6-8,75.2,60.2,51.4,60.3,54.5,49.8,99,84,45,22.04,21.96,8,1,8,0.08
2013-6-9,79.9,65.4,53.8,63.1,57.0,52.5,97,76,50,22.17,21.96,22,4,22,0.00
2013-6-10,89.6,72.5,58.5,65.8,61.6,57.9,99,72,39,22.19,22.12,11,2,11,0.00
2013-6-11,86.9,72.3,58.1,68.0,63.2,57.7,99,76,45,22.17,22.06,11,2,11,0.00
2013-6-12,83.3,67.4,59.9,68.4,64.7,-20.6,99,92,59,22.29,22.05,15,4,15,0.54
2013-6-13,82.2,69.0,58.5,60.3,56.3,51.8,97,68,38,22.19,21.90,20,6,20,0.07
2013-6-14,81.9,67.5,51.3,60.1,54.8,50.5,99,67,41,22.00,21.82,15,4,15,0.00
2013-6-15,86.2,69.1,58.3,70.7,63.3,53.1,99,84,55,22.19,21.92,49,4,49,0.58
2013-6-16,90.0,73.9,60.3,69.3,58.0,46.9,99,65,23,22.12,22.08,17,4,17,0.54
2013-6-17,88.0,72.0,59.5,64.6,58.0,50.5,97,67,29,22.12,21.97,30,4,30,0.11
2013-6-18,79.5,64.6,52.0,57.9,52.1,47.7,99,68,37,21.99,21.88,16,4,16,0.00
2013-6-19,89.2,66.4,46.2,58.3,51.7,45.5,99,65,30,21.94,21.83,14,2,14,0.00
2013-6-20,90.0,74.2,57.4,64.6,57.2,52.5,85,59,30,21.95,21.85,19,6,19,0.00
2013-6-21,82.6,71.2,63.9,70.7,65.9,61.0,99,84,58,22.12,21.91,34,4,34,1.37
2013-6-22,85.5,72.4,66.4,71.8,68.5,65.8,99,89,58,22.09,21.86,22,4,22,1.03
2013-6-23,88.3,76.4,65.1,74.8,68.9,64.0,99,79,56,22.17,21.96,36,8,36,1.26
2013-6-24,85.3,75.1,69.3,71.4,68.6,66.0,93,81,55,22.12,21.98,17,4,17,0.00
2013-6-25,86.4,73.8,66.2,74.8,69.6,65.8,99,88,62,22.18,22.06,14,3,14,0.33
2013-6-26,88.5,75.9,68.5,73.0,69.8,12.2,99,83,52,22.29,22.18,17,4,17,0.00
2013-6-27,92.8,79.1,68.4,73.6,66.5,58.6,99,69,38,22.29,22.17,23,4,23,0.01
2013-6-28,80.8,70.3,64.8,68.4,63.2,59.0,99,79,56,22.34,22.22,17,6,17,0.32
2013-6-29,74.3,66.4,63.1,64.4,61.4,54.9,99,85,64,22.31,22.09,29,9,29,0.33
2013-6-30,84.9,69.8,56.5,57.4,50.4,34.5,91,54,19,22.09,21.90,21,7,21,0.00
2013-7-1,87.6,71.0,54.0,60.1,53.7,47.7,96,60,30,21.91,21.82,20,3,20,0.00
2013-7-2,84.2,70.0,55.0,58.1,51.7,36.1,91,57,20,21.91,21.83,17,4,17,0.00
2013-7-3,78.6,65.1,54.9,62.8,57.3,48.7,98,77,57,21.95,21.87,8,2,8,0.00
2013-7-4,86.9,72.6,59.2,64.2,60.1,56.8,99,69,38,21.99,21.91,17,4,17,0.00
2013-7-5,89.1,75.2,58.8,66.4,62.2,58.5,99,68,39,22.02,21.93,21,5,21,0.00
2013-7-6,91.8,76.6,61.5,67.5,64.2,61.0,98,69,38,22.04,21.96,17,4,17,0.00
2013-7-7,92.8,78.8,65.8,73.6,69.4,64.6,99,75,45,22.10,22.01,15,4,15,0.00
2013-7-8,94.5,80.4,70.2,76.1,72.4,69.4,99,79,50,22.12,21.98,18,5,18,1.20
2013-7-9,88.3,76.2,66.9,76.1,71.9,66.4,99,87,62,22.19,21.97,20,4,20,0.09
2013-7-10,83.7,74.1,60.3,70.7,60.4,53.4,94,65,39,22.15,21.94,26,7,26,0.00
2013-7-11,92.3,72.4,56.1,64.6,58.2,52.5,99,67,29,21.94,21.85,11,2,11,0.00
2013-7-12,85.6,71.9,56.7,61.7,58.2,52.0,99,66,36,21.92,21.82,17,4,17,0.00
2013-7-13,88.2,73.4,61.5,64.8,60.7,54.7,90,67,43,21.91,21.82,17,4,17,0.00
2013-7-14,90.3,75.3,58.1,70.3,64.6,57.7,99,73,42,21.83,21.75,15,3,15,0.00
2013-7-15,97.0,80.7,65.5,75.0,70.3,65.1,99,74,43,21.78,21.71,12,3,12,0.00
2013-7-16,95.7,83.6,72.1,77.5,73.9,71.2,99,75,47,21.78,21.71,15,3,15,0.00
2013-7-17,100.6,85.6,74.1,77.0,73.3,68.7,97,71,38,21.84,21.71,13,3,13,0.00
2013-7-18,96.6,85.6,73.4,76.6,72.5,68.9,96,68,42,22.12,21.82,21,5,21,0.00
2013-7-19,96.6,84.4,69.4,73.6,67.9,55.6,80,60,30,22.25,22.12,25,7,25,0.00
2013-7-20,90.1,75.5,63.0,65.7,62.3,58.8,93,67,38,22.14,22.00,13,3,13,0.00
2013-7-21,75.2,64.5,59.5,66.7,61.5,58.1,99,91,61,22.08,21.97,19,-1,19,0.86
2013-7-22,87.1,73.5,59.9,73.2,67.0,59.5,99,82,55,22.42,22.07,32,5,32,0.00
2013-7-23,77.2,69.5,58.6,68.0,55.7,50.0,83,63,43,22.25,21.96,21,8,21,0.00
2013-7-24,81.5,65.2,51.1,56.8,52.7,49.1,97,68,35,21.96,21.88,11,2,11,0.00
2013-7-25,80.4,67.7,53.6,67.1,60.2,52.7,99,79,54,22.02,21.93,19,5,19,0.00
2013-7-26,81.9,68.8,57.6,71.1,60.2,50.4,99,77,37,22.15,22.01,23,6,23,0.04
2013-7-27,63.7,55.0,47.7,51.3,48.1,43.2,94,78,56,22.12,22.01,17,6,17,0.00
2013-7-28,73.8,59.5,51.1,55.9,52.0,47.3,99,78,49,22.12,21.96,21,6,21,0.00
2013-7-29,82.6,63.8,50.0,60.1,55.1,48.6,99,76,43,21.97,21.82,11,3,11,0.00
2013-7-30,78.8,66.3,54.3,64.2,59.7,53.2,99,81,53,21.91,21.80,17,4,17,0.00
2013-7-31,86.2,69.9,61.5,69.3,63.0,58.3,99,81,50,22.03,21.90,22,3,22,0.00
2013-8-1,85.1,69.4,56.8,61.2,56.6,49.6,99,69,33,22.09,21.97,16,4,16,0.00
2013-8-2,86.4,71.1,58.8,66.4,57.3,52.3,99,66,34,22.15,21.99,17,4,17,0.05
2013-8-3,81.9,67.2,51.8,59.4,52.2,44.2,99,64,29,21.99,21.83,18,4,18,0.00
2013-8-4,84.2,66.0,51.3,61.0,54.1,47.1,99,70,31,21.88,21.74,8,2,8,0.00
2013-8-5,77.2,64.9,56.7,65.1,60.9,55.8,99,88,62,22.12,21.88,15,4,15,0.01
2013-8-6,88.3,74.0,65.3,72.0,66.7,62.8,99,81,47,22.24,22.10,16,4,16,0.01
2013-8-7,82.4,69.1,61.0,71.8,61.2,54.0,99,78,44,22.22,21.97,21,5,21,0.37
2013-8-8,87.6,69.1,53.2,63.7,57.2,52.0,98,70,35,22.00,21.92,11,2,11,0.00
2013-8-9,85.6,71.4,59.0,62.8,57.3,52.0,93,64,35,22.01,21.90,16,4,16,0.00
2013-8-10,82.8,66.9,55.4,59.0,55.4,50.4,98,71,36,21.90,21.81,11,2,11,0.00
2013-8-11,70.9,61.8,54.7,66.6,60.6,53.8,99,96,83,21.95,21.84,8,1,8,0.28
2013-8-12,85.5,70.8,59.5,72.0,60.2,54.5,99,73,42,22.06,21.94,19,4,19,0.01
2013-8-13,77.2,62.9,49.8,59.4,49.2,44.1,94,64,35,21.96,21.80,17,5,17,0.00
2013-8-14,81.7,61.6,45.0,56.5,50.5,44.2,99,72,30,21.87,21.75,9,2,9,0.00
2013-8-15,87.3,68.3,55.9,61.2,55.7,48.0,97,70,30,21.91,21.84,14,2,14,0.00
2013-8-16,89.6,68.9,53.8,62.6,56.2,49.8,99,70,28,21.87,21.80,11,2,11,0.00
2013-8-17,89.4,69.4,52.5,63.3,57.0,51.8,99,70,34,21.83,21.73,12,2,12,0.00
2013-8-18,87.1,69.3,52.0,63.9,56.5,51.4,99,69,36,21.91,21.76,15,2,15,0.00
2013-8-19,87.1,70.9,56.1,66.0,60.7,55.4,99,74,40,21.99,21.88,15,3,15,0.00
2013-8-20,90.1,75.3,59.9,68.9,64.6,59.5,99,73,42,22.01,21.92,21,5,21,0.00
2013-8-21,92.8,79.7,69.1,74.3,69.3,65.5,98,72,50,22.10,21.97,24,6,24,0.02
2013-8-22,91.0,73.2,63.3,68.4,63.5,56.3,99,76,33,21.99,21.84,11,2,11,0.02
2013-8-23,88.7,70.8,54.9,63.1,59.1,54.0,99,71,35,21.86,21.78,15,3,15,0.00
2013-8-24,86.4,72.0,55.2,70.3,62.2,54.3,99,74,43,21.86,21.73,17,5,17,0.00
2013-8-25,95.2,82.4,72.0,72.0,69.7,67.8,88,68,43,21.94,21.82,21,8,21,0.00
2013-8-26,94.5,82.5,73.0,76.8,70.8,65.5,83,69,49,22.06,21.85,22,6,22,0.00
2013-8-27,100.0,85.2,73.9,76.5,73.4,70.9,97,71,41,22.20,22.04,29,5,29,0.00
2013-8-28,94.6,77.8,70.3,75.0,71.2,68.0,99,83,47,22.12,21.92,14,3,14,0.01
2013-8-29,91.2,77.5,63.5,72.3,67.2,61.3,99,74,38,22.03,21.88,19,4,19,0.00
2013-8-30,95.7,80.2,67.8,78.4,70.8,62.8,96,75,46,22.18,22.02,20,6,20,0.00
2013-8-31,90.0,73.0,60.8,67.3,64.1,60.1,98,77,43,22.19,22.07,10,2,10,0.00
2013-9-1,90.0,74.3,63.3,72.3,63.6,56.1,99,73,35,22.26,22.13,23,5,23,0.00
2013-9-2,74.1,64.4,51.4,61.9,55.0,49.8,95,74,46,22.12,21.96,17,6,17,0.00
2013-9-3,84.2,62.5,44.8,55.9,50.1,44.1,99,70,28,21.99,21.88,12,2,12,0.00
2013-9-4,90.5,70.1,52.0,66.2,58.8,51.1,99,72,38,21.96,21.83,14,3,14,0.00
2013-9-5,86.4,68.3,56.3,62.1,56.4,50.5,98,69,37,21.83,21.69,13,3,13,0.00
2013-9-6,91.8,66.4,50.7,65.5,54.8,48.0,93,70,40,21.98,21.75,16,4,16,0.00
2013-11-21,42.1,39.0,34.7,37.2,35.1,29.3,90,86,82,21.86,21.71,17,6,17,0.04
2013-11-22,40.3,30.8,25.2,29.3,17.3,5.0,90,60,29,21.72,21.52,26,8,26,0.04
2013-11-23,25.7,16.6,9.1,12.0,-3.2,-13.0,63,42,24,21.60,21.31,29,10,29,0.00
2013-11-24,28.6,17.8,5.7,0.1,-4.9,-9.6,62,39,20,21.83,21.33,23,8,23,0.00
2013-11-25,34.7,28.6,23.2,24.1,15.4,-3.5,72,60,28,22.04,21.83,24,10,24,0.00
2013-11-26,34.2,24.1,11.5,23.0,7.4,-7.4,69,49,30,22.02,21.77,24,8,24,0.00
2013-11-27,35.2,20.3,9.1,9.1,1.5,-4.4,66,45,22,21.84,21.74,18,6,18,0.00
2013-11-28,34.5,23.6,16.5,12.4,7.1,2.7,64,49,34,21.87,21.51,19,4,19,0.00
2013-11-29,32.0,21.3,8.6,16.3,9.3,0.1,73,60,46,21.72,21.42,15,4,15,0.00
2013-11-30,49.1,35.5,26.4,26.4,21.9,13.6,70,58,41,22.01,21.71,15,4,15,0.00
2013-12-1,49.8,32.1,23.4,29.3,21.0,15.6,85,65,36,22.03,21.85,10,2,10,0.00
2013-12-2,41.0,29.6,17.6,30.9,22.9,11.3,92,76,63,22.27,22.02,19,3,19,0.00
2013-12-3,34.0,33.1,32.4,32.4,31.5,30.7,95,94,92,22.29,22.21,15,5,15,0.19
2013-12-4,45.1,35.3,32.4,44.4,33.6,26.8,99,94,75,22.58,22.21,27,5,27,0.02
2013-12-5,33.1,19.7,8.2,27.5,5.1,-5.8,80,53,38,22.40,21.73,30,12,30,0.01
2013-12-6,17.4,8.1,1.9,-5.4,-8.1,-11.2,60,48,31,21.74,21.47,20,8,20,0.00
2013-12-7,16.0,4.5,-3.3,-8.7,-13.5,-19.7,58,43,24,21.47,21.34,17,4,17,0.00
2013-12-8,14.7,9.7,2.5,5.9,-1.7,-9.4,75,60,42,22.04,21.43,11,4,11,0.00
2013-12-9,19.0,8.3,-4.5,6.4,-5.9,-18.8,74,53,29,22.08,21.88,28,8,28,0.00
2013-12-10,19.8,7.3,-7.8,2.1,-8.2,-21.8,63,49,33,22.16,21.80,30,8,30,0.00
2013-12-11,11.1,3.6,-8.1,3.7,-15.0,-26.5,72,43,22,21.81,21.53,19,6,19,0.00
2013-12-12,22.8,10.9,-6.5,4.8,-5.3,-21.1,56,48,36,21.86,21.84,14,5,14,0.00
2013-12-13,23.5,17.2,14.0,8.4,3.4,-19.1,62,54,46,21.87,21.57,15,5,15,0.00
2013-12-14,22.8,17.5,14.2,13.5,8.8,2.8,74,68,59,22.08,21.78,19,7,19,0.00
2013-12-15,16.5,7.3,-4.0,6.6,-11.2,-22.7,67,43,24,22.08,21.88,23,8,23,0.00
2013-12-16,14.0,5.6,-5.6,7.2,-7.5,-21.3,74,54,39,22.04,21.88,14,3,14,0.00
2013-12-17,37.6,24.2,14.0,27.3,13.8,0.9,82,65,45,22.17,21.95,23,8,23,0.04
2013-12-18,37.9,20.8,5.0,18.1,6.5,-5.8,68,54,38,22.29,21.92,20,5,20,0.00
2013-12-19,28.0,23.1,15.6,20.1,14.5,9.3,83,69,57,22.25,22.00,21,6,21,0.00
2013-12-20,22.3,20.6,18.3,17.6,15.0,11.1,83,79,72,22.19,22.06,21,1,21,0.00
2013-12-21,25.9,23.6,21.0,21.7,18.7,16.7,85,81,73,22.22,22.09,0,0,0,0.00
2013-12-22,24.8,22.7,19.9,19.2,17.0,14.4,84,79,65,22.24,21.90,17,2,17,0.04
2013-12-23,20.8,11.4,-1.3,16.5,2.5,-12.3,83,67,53,21.91,21.60,14,4,14,0.04
2013-12-24,23.0,4.3,-11.0,0.7,-9.6,-23.4,66,52,30,21.77,21.51,14,4,14,0.00
2013-12-25,22.5,16.3,7.3,16.2,8.2,-1.7,78,70,60,21.97,21.77,16,4,16,0.00
2013-12-26,19.4,17.6,14.5,11.8,7.1,4.1,72,63,57,21.94,21.81,16,4,16,0.00
2013-12-29,31.5,31.5,31.5,23.5,23.5,23.4,72,72,72,22.29,22.29,0,0,2,0.00
2014-1-2,16.0,4.6,-7.2,-7.2,-15.7,-22.0,58,39,24,21.69,21.60,17,5,17,0.00